Regional Weather Roundup
Issued by NWS

Home | Current Version | Previous Version | Graphics & Text | Print | Product List | Glossary On
Versions: 1 2 3 4 5 6 7 8 9 10 11 12 13 14 15 16 17 18 19 20 21 22 23 24 25 26 27
000
ASUS45 KSLC 231810
RWRUT

UTAH REGIONAL WEATHER ROUNDUP
NATIONAL WEATHER SERVICE SALT LAKE CITY UT
1100 AM MST MON JAN 23 2017

UTZ001>011-023>025-231900-

NORTHERN UTAH

CITY           SKY/WX    TMP DP  RH WIND       PRES   REMARKS
BRIGHAM CITY     N/A     38  32  77 CALM      29.46F
HILL AFB       LGT SNOW  35  32  87 S23       29.46S WCI  23
LOGAN          LGT SNOW  31  30  96 NW6       29.45F FOG     WCI  25
OGDEN          LGT RAIN  35  32  88 S21       29.46S WCI  24
SALT LAKE CITY CLOUDY    38  31  76 S25G37    29.47S WCI  27
TOOELE VALLEY  CLOUDY    43  32  65 S26G36    29.45S
WENDOVER       CLOUDY    36  36 100 NW10G16   29.48S WCI  28
HEBER CITY     HVY SNOW  30  30 100 SW20G38   29.53R VSB<1/4 WCI  18
WEST JORDAN    CLOUDY    36  35  94 SE23G37   29.50R WCI  25

$$

UTZ011>015-024>027-231900-

CENTRAL/NORTHEAST UTAH

CITY           SKY/WX    TMP DP  RH WIND       PRES   REMARKS
PROVO AIRPORT  LGT RAIN  33  31  92 S14       29.58F WCI  23
MOAB/CANYONLAN PTSUNNY   43  33  68 SE14      29.61F
DELTA          CLOUDY    34  32  93 S14       29.56R WCI  24
PRICE          SNOW      31  31 100 W6        29.56F VSB 1/2 WCI  25
RICHFIELD      PTSUNNY   37  27  65 S21G28    29.60R WCI  27
ROOSEVELT      LGT SNOW  30  27  86 CALM      29.61F VSB 1
VERNAL         NOT AVBL

$$

UTZ013>016-019>022-027-231900-

SOUTHERN UTAH

CITY           SKY/WX    TMP DP  RH WIND       PRES   REMARKS
BRYCE CANYON   SNOW      25  22  88 W35G41    29.64R VSB 1/4 WCI   7
CEDAR CITY     CLOUDY    33  27  78 SW18G26   29.64R WCI  22
MILFORD        MOSUNNY   38  30  73 S28G36    29.59R WCI  26
ST GEORGE      CLOUDY    48  28  46 SW14      29.74R
HANKSVILLE     CLOUDY    45  32  61 MISG      29.59F
KANAB          CLOUDY    36  32  87 SW18      29.75  FOG     WCI  25
BLANDING       CLOUDY    32  30  91 SE15      29.83F WCI  22

$$

REGIONAL REPORTS     COLORADO/ARIZONA

CITY           SKY/WX    TMP DP  RH WIND       PRES   REMARKS
CRAIG, CO      CLOUDY    38  24  57 CALM      29.62F
GRAND JUNCTION PTSUNNY   47  32  56 S18G26    29.66F
RIFLE, CO      LGT SNOW  36  33  89 N3        29.67F FOG
MONTROSE, CO   CLOUDY    46  27  47 SW29G44   29.70F
CORTEZ, CO     CLOUDY    36  28  73 S16G24    29.82F WCI  26
COLORADO CITY    N/A     37  34  87 W14G23    29.76R WCI  29
PAGE, AZ       CLOUDY    49  29  46 S18G39    29.65F
GRAND CANYON   CLOUDY    32  31  96 SW25G36   29.76S FOG     WCI  19
KINGMAN, AZ    CLOUDY    47  35  63 SW31G40   29.81R
FLAGSTAFF, AZ  SNOW      31  30  96 SW24G46   29.79S VSB 1/4 WCI  17

$$

REGIONAL REPORTS    NEVADA/IDAHO/WYOMING

CITY           SKY/WX    TMP DP  RH WIND       PRES   REMARKS
LAS VEGAS, NV  PTSUNNY   49  30  48 SW14G26   29.77R
ELY, NY        FLURRIES  28  25  88 CALM      29.57R
ELKO, NV       CLOUDY    31  25  78 W20G28    29.58R WCI  19
POCATELLO, ID  LGT SNOW  32  31  96 NE7       29.47S FOG     WCI  26
BURLEY, ID     CLOUDY    33  30  88 E7        29.46S WCI  27
FORT BRIDGER,    N/A     20  20 100 NE3       29.52F
EVANSTON, WY   LGT SNOW  28  24  85 S13       29.47R VSB 3/4 WCI  17
ROCK SPRINGS,  CLOUDY    30  22  72 S14       29.52F WCI  19

$$




USA.gov is the U.S. government's official web portal to all federal, state and local government web resources and services.